| time (UTC) | temp C | wind direction | speed KPH | gust KPH | rain 1hr cm | rain 24hr cm | rain mn cm | humidity % | barometer mb |
| 20260506190525 | 25 | 100 | 3.2 | 0.0 | 0.00 | 0.00 | 0.00 | 23 | 1009.4 |
| 20260506190001 | 25 | 89 | 3.2 | 0.0 | 0.00 | 0.00 | 0.00 | 23 | 1009.4 |
| 20260506185546 | 26 | 55 | 3.2 | 0.0 | 0.00 | 0.00 | 0.00 | 23 | 1009.5 |
| 20260506185026 | 25 | 360 | 3.2 | 0.0 | 0.00 | 0.00 | 0.00 | 22 | 1009.6 |
| 20260506184504 | 26 | 360 | 3.2 | 0.0 | 0.00 | 0.00 | 0.00 | 23 | 1009.6 |
| 20260506184052 | 25 | 92 | 3.2 | 0.0 | 0.00 | 0.00 | 0.00 | 23 | 1009.7 |
| 20260506183528 | 25 | 85 | 3.2 | 0.0 | 0.00 | 0.00 | 0.00 | 24 | 1009.7 |
| 20260506183009 | 25 | 360 | 3.2 | 0.0 | 0.00 | 0.00 | 0.00 | 23 | 1009.8 |
| 20260506182551 | 25 | 360 | 4.8 | 0.0 | 0.00 | 0.00 | 0.00 | 23 | 1009.8 |
| 20260506182033 | 25 | 87 | 3.2 | 0.0 | 0.00 | 0.00 | 0.00 | 24 | 1009.7 |
| 20260506181509 | 25 | 124 | 3.2 | 0.0 | 0.00 | 0.00 | 0.00 | 23 | 1009.8 |
| 20260506181059 | 24 | 124 | 4.8 | 0.0 | 0.00 | 0.00 | 0.00 | 24 | 1009.8 |
| 20260506180538 | 25 | 81 | 4.8 | 0.0 | 0.00 | 0.00 | 0.00 | 24 | 1009.8 |
| 20260506180014 | 24 | 55 | 4.8 | 0.0 | 0.00 | 0.00 | 0.00 | 24 | 1010.0 |
| 20260506175557 | 24 | 106 | 4.8 | 0.0 | 0.00 | 0.00 | 0.00 | 25 | 1009.8 |
| 20260506175030 | 23 | 98 | 4.8 | 0.0 | 0.00 | 0.00 | 0.00 | 26 | 1009.7 |
| 20260506174514 | 23 | 80 | 4.8 | 0.0 | 0.00 | 0.00 | 0.00 | 25 | 1009.7 |
| 20260506174054 | 23 | 104 | 3.2 | 0.0 | 0.00 | 0.00 | 0.00 | 25 | 1009.7 |
| 20260506173531 | 23 | 128 | 4.8 | 0.0 | 0.00 | 0.00 | 0.00 | 25 | 1009.7 |
| 20260506173008 | 23 | 113 | 6.4 | 0.0 | 0.00 | 0.00 | 0.00 | 25 | 1009.7 |
| 20260506172550 | 23 | 181 | 6.4 | 0.0 | 0.00 | 0.00 | 0.00 | 26 | 1009.9 |
| 20260506172025 | 22 | 113 | 6.4 | 0.0 | 0.00 | 0.00 | 0.00 | 27 | 1009.9 |
| 20260506171506 | 23 | 111 | 4.8 | 0.0 | 0.00 | 0.00 | 0.00 | 26 | 1009.8 |
| 20260506171043 | 22 | 122 | 6.4 | 0.0 | 0.00 | 0.00 | 0.00 | 27 | 1009.8 |
| 20260506170526 | 22 | 105 | 6.4 | 0.0 | 0.00 | 0.00 | 0.00 | 27 | 1009.8 |
| 20260506170001 | 22 | 132 | 4.8 | 0.0 | 0.00 | 0.00 | 0.00 | 27 | 1009.9 |
| 20260506165540 | 22 | 119 | 4.8 | 0.0 | 0.00 | 0.00 | 0.00 | 27 | 1009.7 |
| 20260506165018 | 22 | 142 | 4.8 | 0.0 | 0.00 | 0.00 | 0.00 | 28 | 1009.9 |
| 20260506164600 | 21 | 85 | 4.8 | 0.0 | 0.00 | 0.00 | 0.00 | 28 | 1009.9 |
| 20260506164035 | 21 | 96 | 4.8 | 0.0 | 0.00 | 0.00 | 0.00 | 29 | 1010.0 |
| 20260506163510 | 21 | 101 | 6.4 | 0.0 | 0.00 | 0.00 | 0.00 | 28 | 1010.0 |
| 20260506163112 | 21 | 118 | 6.4 | 0.0 | 0.00 | 0.00 | 0.00 | 30 | 1009.9 |
| 20260506162531 | 21 | 105 | 4.8 | 0.0 | 0.00 | 0.00 | 0.00 | 30 | 1010.0 |
| 20260506162010 | 21 | 62 | 4.8 | 0.0 | 0.00 | 0.00 | 0.00 | 30 | 1010.0 |
| 20260506161551 | 21 | 114 | 4.8 | 0.0 | 0.00 | 0.00 | 0.00 | 30 | 1009.9 |
| 20260506161027 | 21 | 98 | 4.8 | 0.0 | 0.00 | 0.00 | 0.00 | 30 | 1009.9 |
| 20260506160505 | 20 | 95 | 6.4 | 0.0 | 0.00 | 0.00 | 0.00 | 31 | 1010.0 |
| 20260506160043 | 20 | 159 | 6.4 | 0.0 | 0.00 | 0.00 | 0.00 | 32 | 1010.0 |
| 20260506155519 | 20 | 91 | 6.4 | 0.0 | 0.00 | 0.00 | 0.00 | 32 | 1009.6 |
| 20260506155103 | 20 | 102 | 6.4 | 0.0 | 0.00 | 0.00 | 0.00 | 32 | 1009.6 |
| 20260506154541 | 19 | 82 | 6.4 | 0.0 | 0.00 | 0.00 | 0.00 | 33 | 1009.4 |
| 20260506154015 | 19 | 111 | 4.8 | 0.0 | 0.00 | 0.00 | 0.00 | 34 | 1009.6 |
| 20260506153557 | 19 | 92 | 4.8 | 0.0 | 0.00 | 0.00 | 0.00 | 34 | 1009.6 |
| 20260506153040 | 18 | 60 | 4.8 | 0.0 | 0.00 | 0.00 | 0.00 | 35 | 1009.7 |
| 20260506152517 | 18 | 128 | 3.2 | 0.0 | 0.00 | 0.00 | 0.00 | 34 | 1009.6 |
| 20260506152056 | 18 | 49 | 3.2 | 0.0 | 0.00 | 0.00 | 0.00 | 35 | 1009.6 |
| 20260506151540 | 18 | 107 | 4.8 | 0.0 | 0.00 | 0.00 | 0.00 | 35 | 1009.6 |
| 20260506151016 | 18 | 126 | 4.8 | 0.0 | 0.00 | 0.00 | 0.00 | 36 | 1009.5 |
| 20260506150557 | 18 | 103 | 6.4 | 0.0 | 0.00 | 0.00 | 0.00 | 37 | 1009.6 |
| 20260506150033 | 18 | 105 | 4.8 | 0.0 | 0.00 | 0.00 | 0.00 | 37 | 1009.6 |
| 20260506145510 | 17 | 110 | 4.8 | 0.0 | 0.00 | 0.00 | 0.00 | 37 | 1009.4 |
| 20260506145053 | 17 | 128 | 3.2 | 0.0 | 0.00 | 0.00 | 0.00 | 38 | 1009.5 |
| 20260506144529 | 17 | 94 | 3.2 | 0.0 | 0.00 | 0.00 | 0.00 | 38 | 1009.4 |
| 20260506144009 | 17 | 111 | 4.8 | 0.0 | 0.00 | 0.00 | 0.00 | 38 | 1009.2 |
| 20260506143553 | 17 | 97 | 3.2 | 0.0 | 0.00 | 0.00 | 0.00 | 38 | 1009.3 |
| 20260506143031 | 17 | 105 | 3.2 | 0.0 | 0.00 | 0.00 | 0.00 | 39 | 1009.3 |
| 20260506142506 | 16 | 86 | 1.6 | 0.0 | 0.00 | 0.00 | 0.00 | 38 | 1009.3 |
| 20260506142051 | 16 | 69 | 1.6 | 0.0 | 0.00 | 0.00 | 0.00 | 38 | 1009.2 |
| 20260506141527 | 16 | 318 | 0.0 | 0.0 | 0.00 | 0.00 | 0.00 | 38 | 1009.2 |
| 20260506141007 | 15 | 24 | 0.0 | 0.0 | 0.00 | 0.00 | 0.00 | 38 | 1009.3 |
| 20260506140549 | 15 | 360 | 0.0 | 0.0 | 0.00 | 0.00 | 0.00 | 39 | 1009.4 |
| 20260506140033 | 15 | 360 | 0.0 | 0.0 | 0.00 | 0.00 | 0.00 | 38 | 1009.3 |
| 20260506135507 | 14 | 360 | 0.0 | 0.0 | 0.00 | 0.00 | 0.00 | 41 | 1009.1 |
| 20260506135050 | 13 | 360 | 0.0 | 0.0 | 0.00 | 0.00 | 0.00 | 40 | 1009.1 |
| 20260506134528 | 13 | 360 | 0.0 | 0.0 | 0.00 | 0.00 | 0.00 | 38 | 1009.1 |
| 20260506134007 | 13 | 360 | 0.0 | 0.0 | 0.00 | 0.00 | 0.00 | 39 | 1009.0 |
| 20260506133543 | 13 | 360 | 0.0 | 0.0 | 0.00 | 0.00 | 0.00 | 38 | 1008.9 |
| 20260506133022 | 13 | 360 | 0.0 | 0.0 | 0.00 | 0.00 | 0.00 | 39 | 1008.8 |
| 20260506132503 | 13 | 360 | 1.6 | 0.0 | 0.00 | 0.00 | 0.00 | 40 | 1008.8 |
| 20260506132048 | 12 | 360 | 1.6 | 0.0 | 0.00 | 0.00 | 0.00 | 40 | 1008.8 |
| 20260506131529 | 12 | 360 | 1.6 | 0.0 | 0.00 | 0.00 | 0.00 | 39 | 1008.9 |
| 20260506131105 | 12 | 360 | 0.0 | 0.0 | 0.00 | 0.00 | 0.00 | 38 | 1008.6 |
| 20260506130548 | 12 | 360 | 1.6 | 0.0 | 0.00 | 0.00 | 0.00 | 39 | 1008.5 |
| 20260506130021 | 12 | 360 | 1.6 | 0.0 | 0.00 | 0.00 | 0.00 | 39 | 1008.6 |
| 20260506125501 | 11 | 360 | 1.6 | 0.0 | 0.00 | 0.00 | 0.00 | 39 | 1008.4 |
| 20260506125042 | 11 | 360 | 1.6 | 0.0 | 0.00 | 0.00 | 0.00 | 39 | 1008.4 |
| 20260506124519 | 11 | 360 | 1.6 | 0.0 | 0.00 | 0.00 | 0.00 | 39 | 1008.3 |
| 20260506124101 | 11 | 360 | 1.6 | 0.0 | 0.00 | 0.00 | 0.00 | 38 | 1008.3 |
| 20260506123545 | 11 | 360 | 1.6 | 0.0 | 0.00 | 0.00 | 0.00 | 38 | 1008.3 |
| 20260506123022 | 12 | 360 | 0.0 | 0.0 | 0.00 | 0.00 | 0.00 | 38 | 1008.0 |
| 20260506122503 | 12 | 360 | 1.6 | 0.0 | 0.00 | 0.00 | 0.00 | 38 | 1007.9 |
| 20260506122048 | 12 | 360 | 1.6 | 0.0 | 0.00 | 0.00 | 0.00 | 39 | 1007.9 |
| 20260506121529 | 12 | 360 | 1.6 | 0.0 | 0.00 | 0.00 | 0.00 | 37 | 1007.9 |
| 20260506121014 | 12 | 360 | 1.6 | 0.0 | 0.00 | 0.00 | 0.00 | 39 | 1007.9 |
| 20260506120555 | 12 | 277 | 1.6 | 0.0 | 0.00 | 0.00 | 0.00 | 37 | 1007.8 |
| 20260506120036 | 13 | 273 | 0.0 | 0.0 | 0.00 | 0.00 | 0.00 | 37 | 1007.6 |
| 20260506115514 | 13 | 53 | 0.0 | 0.0 | 0.00 | 0.00 | 0.00 | 40 | 1007.7 |
| 20260506115100 | 13 | 350 | 0.0 | 0.0 | 0.00 | 0.00 | 0.00 | 39 | 1007.7 |
| 20260506114545 | 13 | 360 | 0.0 | 0.0 | 0.00 | 0.00 | 0.00 | 39 | 1007.6 |
| 20260506114026 | 13 | 360 | 0.0 | 0.0 | 0.00 | 0.00 | 0.00 | 40 | 1007.8 |
| 20260506113502 | 13 | 360 | 1.6 | 0.0 | 0.00 | 0.00 | 0.00 | 38 | 1007.8 |
| 20260506113045 | 13 | 360 | 1.6 | 0.0 | 0.00 | 0.00 | 0.00 | 39 | 1007.7 |
| 20260506112528 | 13 | 360 | 0.0 | 0.0 | 0.00 | 0.00 | 0.00 | 39 | 1007.6 |
| 20260506112004 | 13 | 67 | 0.0 | 0.0 | 0.00 | 0.00 | 0.00 | 37 | 1007.4 |
| 20260506111551 | 14 | 66 | 0.0 | 0.0 | 0.00 | 0.00 | 0.00 | 37 | 1007.4 |
| 20260506111031 | 14 | 67 | 1.6 | 0.0 | 0.00 | 0.00 | 0.00 | 37 | 1007.3 |
| 20260506110510 | 14 | 41 | 1.6 | 0.0 | 0.00 | 0.00 | 0.00 | 37 | 1007.4 |
| 20260506110058 | 13 | 286 | 1.6 | 0.0 | 0.00 | 0.00 | 0.00 | 36 | 1007.4 |
| 20260506105529 | 13 | 267 | 1.6 | 0.0 | 0.00 | 0.00 | 0.00 | 36 | 1007.3 |
| 20260506105011 | 14 | 286 | 1.6 | 0.0 | 0.00 | 0.00 | 0.00 | 35 | 1007.3 |
| 20260506104552 | 14 | 286 | 0.0 | 0.0 | 0.00 | 0.00 | 0.00 | 35 | 1007.1 |
| 20260506104030 | 15 | 360 | 0.0 | 0.0 | 0.00 | 0.00 | 0.00 | 35 | 1007.0 |
| 20260506103511 | 15 | 360 | 0.0 | 0.0 | 0.00 | 0.00 | 0.00 | 34 | 1007.0 |
| 20260506103105 | 15 | 94 | 0.0 | 0.0 | 0.00 | 0.00 | 0.00 | 34 | 1006.9 |
| 20260506102536 | 15 | 360 | 0.0 | 0.0 | 0.00 | 0.00 | 0.00 | 34 | 1006.9 |
| 20260506102014 | 15 | 360 | 0.0 | 0.0 | 0.00 | 0.00 | 0.00 | 34 | 1006.8 |
| 20260506101618 | 15 | 97 | 0.0 | 0.0 | 0.00 | 0.00 | 0.00 | 34 | 1006.7 |
| 20260506101031 | 15 | 96 | 0.0 | 0.0 | 0.00 | 0.00 | 0.00 | 34 | 1006.6 |
| 20260506100513 | 15 | 75 | 0.0 | 0.0 | 0.00 | 0.00 | 0.00 | 33 | 1006.4 |
| 20260506100100 | 15 | 74 | 0.0 | 0.0 | 0.00 | 0.00 | 0.00 | 34 | 1006.4 |
| 20260506095537 | 15 | 303 | 0.0 | 0.0 | 0.00 | 0.00 | 0.00 | 34 | 1006.2 |
| 20260506095015 | 15 | 304 | 0.0 | 0.0 | 0.00 | 0.00 | 0.00 | 33 | 1006.2 |
| 20260506094605 | 15 | 304 | 0.0 | 0.0 | 0.00 | 0.00 | 0.00 | 31 | 1006.1 |
| 20260506094041 | 15 | 360 | 0.0 | 0.0 | 0.00 | 0.00 | 0.00 | 33 | 1006.0 |
| 20260506093525 | 15 | 324 | 0.0 | 0.0 | 0.00 | 0.00 | 0.00 | 33 | 1005.9 |
| 20260506093004 | 16 | 324 | 0.0 | 0.0 | 0.00 | 0.00 | 0.00 | 33 | 1005.9 |
| 20260506092550 | 16 | 324 | 0.0 | 0.0 | 0.00 | 0.00 | 0.00 | 32 | 1005.7 |
| 20260506092028 | 16 | 324 | 0.0 | 0.0 | 0.00 | 0.00 | 0.00 | 31 | 1005.7 |
| 20260506091510 | 17 | 324 | 0.0 | 0.0 | 0.00 | 0.00 | 0.00 | 30 | 1005.7 |
| 20260506091059 | 16 | 324 | 0.0 | 0.0 | 0.00 | 0.00 | 0.00 | 31 | 1005.7 |
| 20260506090541 | 16 | 277 | 0.0 | 0.0 | 0.00 | 0.00 | 0.00 | 32 | 1005.7 |
| 20260506090023 | 16 | 276 | 0.0 | 0.0 | 0.00 | 0.00 | 0.00 | 32 | 1005.7 |
| 20260506085603 | 16 | 301 | 0.0 | 0.0 | 0.00 | 0.00 | 0.00 | 32 | 1006.1 |
| 20260506085044 | 16 | 301 | 1.6 | 0.0 | 0.00 | 0.00 | 0.00 | 33 | 1006.2 |
| 20260506084535 | 16 | 301 | 0.0 | 0.0 | 0.00 | 0.00 | 0.00 | 32 | 1006.2 |
| 20260506084012 | 16 | 283 | 0.0 | 0.0 | 0.00 | 0.00 | 0.00 | 31 | 1006.2 |
| 20260506083558 | 16 | 283 | 0.0 | 0.0 | 0.00 | 0.00 | 0.00 | 32 | 1006.1 |
| 20260506083040 | 16 | 282 | 0.0 | 0.0 | 0.00 | 0.00 | 0.00 | 31 | 1006.1 |
| 20260506082525 | 17 | 109 | 0.0 | 0.0 | 0.00 | 0.00 | 0.00 | 31 | 1006.0 |
| 20260506082007 | 16 | 94 | 0.0 | 0.0 | 0.00 | 0.00 | 0.00 | 32 | 1006.0 |
| 20260506081557 | 16 | 273 | 1.6 | 0.0 | 0.00 | 0.00 | 0.00 | 32 | 1006.2 |
| 20260506081035 | 17 | 274 | 1.6 | 0.0 | 0.00 | 0.00 | 0.00 | 31 | 1005.9 |
| 20260506080514 | 17 | 261 | 1.6 | 0.0 | 0.00 | 0.00 | 0.00 | 30 | 1005.9 |
| 20260506073006 | 16 | 32 | 0.0 | 0.0 | 0.00 | 0.00 | 0.00 | 30 | 1006.2 |
| 20260506072548 | 16 | 360 | 0.0 | 0.0 | 0.00 | 0.00 | 0.00 | 31 | 1006.2 |
| 20260506072023 | 16 | 31 | 1.6 | 0.0 | 0.00 | 0.00 | 0.00 | 30 | 1006.2 |
| 20260506071504 | 16 | 49 | 1.6 | 0.0 | 0.00 | 0.00 | 0.00 | 31 | 1006.2 |
| 20260506071045 | 16 | 78 | 1.6 | 0.0 | 0.00 | 0.00 | 0.00 | 32 | 1006.3 |
| 20260506070528 | 16 | 360 | 0.0 | 0.0 | 0.00 | 0.00 | 0.00 | 32 | 1006.4 |
| 20260506062028 | 16 | 92 | 0.0 | 0.0 | 0.00 | 0.00 | 0.00 | 30 | 1005.7 |
| 20260506061506 | 16 | 360 | 0.0 | 0.0 | 0.00 | 0.00 | 0.00 | 30 | 1005.6 |
| 20260506061052 | 17 | 360 | 0.0 | 0.0 | 0.00 | 0.00 | 0.00 | 30 | 1005.3 |
| 20260506060537 | 17 | 360 | 1.6 | 0.0 | 0.00 | 0.00 | 0.00 | 30 | 1005.2 |
| 20260506051030 | 17 | 360 | 1.6 | 0.0 | 0.00 | 0.00 | 0.00 | 30 | 1004.9 |
| 20260506050512 | 17 | 329 | 1.6 | 0.0 | 0.00 | 0.00 | 0.00 | 30 | 1004.9 |
| 20260506050116 | 17 | 360 | 1.6 | 0.0 | 0.00 | 0.00 | 0.00 | 30 | 1004.8 |
| 20260506045016 | 18 | 360 | 0.0 | 0.0 | 0.00 | 0.00 | 0.00 | 29 | 1004.6 |
| 20260506044601 | 19 | 246 | 0.0 | 0.0 | 0.00 | 0.00 | 0.00 | 29 | 1004.4 |
| 20260506044046 | 20 | 246 | 0.0 | 0.0 | 0.00 | 0.00 | 0.00 | 30 | 1004.3 |
| 20260506043531 | 20 | 246 | 0.0 | 0.0 | 0.00 | 0.00 | 0.00 | 29 | 1004.3 |
| 20260506043016 | 20 | 246 | 0.0 | 0.0 | 0.00 | 0.00 | 0.00 | 29 | 1004.3 |
| 20260506042559 | 20 | 360 | 0.0 | 0.0 | 0.00 | 0.00 | 0.00 | 29 | 1004.3 |
| 20260506042048 | 20 | 360 | 0.0 | 0.0 | 0.00 | 0.00 | 0.00 | 28 | 1004.1 |
| 20260506041535 | 20 | 360 | 0.0 | 0.0 | 0.00 | 0.00 | 0.00 | 28 | 1004.1 |
| 20260506041002 | 20 | 360 | 0.0 | 0.0 | 0.00 | 0.00 | 0.00 | 28 | 1004.0 |
| 20260506040547 | 21 | 360 | 0.0 | 0.0 | 0.00 | 0.00 | 0.00 | 28 | 1003.9 |
| 20260506040035 | 21 | 360 | 0.0 | 0.0 | 0.00 | 0.00 | 0.00 | 28 | 1003.8 |
| 20260506035520 | 21 | 360 | 0.0 | 0.0 | 0.00 | 0.00 | 0.00 | 27 | 1004.0 |
| 20260506035105 | 21 | 360 | 0.0 | 0.0 | 0.00 | 0.00 | 0.00 | 27 | 1003.9 |
| 20260506034550 | 21 | 360 | 0.0 | 0.0 | 0.00 | 0.00 | 0.00 | 26 | 1003.8 |
| 20260506034031 | 21 | 360 | 0.0 | 0.0 | 0.00 | 0.00 | 0.00 | 25 | 1003.7 |
| 20260506033506 | 21 | 360 | 1.6 | 0.0 | 0.00 | 0.00 | 0.00 | 25 | 1003.7 |
| 20260506033053 | 21 | 360 | 1.6 | 0.0 | 0.00 | 0.00 | 0.00 | 25 | 1003.4 |
| 20260506032538 | 21 | 360 | 0.0 | 0.0 | 0.00 | 0.00 | 0.00 | 24 | 1003.4 |
| 20260506032016 | 21 | 360 | 0.0 | 0.0 | 0.00 | 0.00 | 0.00 | 24 | 1003.2 |
| 20260506031501 | 21 | 360 | 0.0 | 0.0 | 0.00 | 0.00 | 0.00 | 23 | 1003.1 |
| 20260506031048 | 22 | 76 | 0.0 | 0.0 | 0.00 | 0.00 | 0.00 | 23 | 1003.1 |
| 20260506030532 | 22 | 77 | 0.0 | 0.0 | 0.00 | 0.00 | 0.00 | 23 | 1003.0 |
| 20260506030015 | 22 | 360 | 0.0 | 0.0 | 0.00 | 0.00 | 0.00 | 23 | 1002.9 |
| 20260506025557 | 22 | 360 | 0.0 | 0.0 | 0.00 | 0.00 | 0.00 | 22 | 1003.0 |
| 20260506025036 | 22 | 360 | 0.0 | 0.0 | 0.00 | 0.00 | 0.00 | 22 | 1002.9 |
| 20260506024515 | 22 | 193 | 0.0 | 0.0 | 0.00 | 0.00 | 0.00 | 22 | 1002.8 |
| 20260506024106 | 22 | 128 | 0.0 | 0.0 | 0.00 | 0.00 | 0.00 | 21 | 1002.7 |
| 20260506023546 | 22 | 360 | 0.0 | 0.0 | 0.00 | 0.00 | 0.00 | 21 | 1002.8 |
| 20260506023028 | 22 | 360 | 0.0 | 0.0 | 0.00 | 0.00 | 0.00 | 20 | 1002.5 |
| 20260506022510 | 22 | 360 | 0.0 | 0.0 | 0.00 | 0.00 | 0.00 | 20 | 1002.5 |
| 20260506022103 | 23 | 360 | 0.0 | 0.0 | 0.00 | 0.00 | 0.00 | 20 | 1002.4 |
| 20260506021544 | 23 | 360 | 1.6 | 0.0 | 0.00 | 0.00 | 0.00 | 20 | 1002.4 |
| 20260506021024 | 23 | 360 | 1.6 | 0.0 | 0.00 | 0.00 | 0.00 | 19 | 1002.3 |
| 20260506020503 | 23 | 360 | 1.6 | 0.0 | 0.00 | 0.00 | 0.00 | 19 | 1002.2 |
| 20260506020055 | 23 | 360 | 1.6 | 0.0 | 0.00 | 0.00 | 0.00 | 19 | 1002.2 |
| 20260506015532 | 23 | 360 | 1.6 | 0.0 | 0.00 | 0.00 | 0.00 | 19 | 1002.3 |
| 20260506015015 | 23 | 360 | 1.6 | 0.0 | 0.00 | 0.00 | 0.00 | 19 | 1002.3 |
| 20260506014502 | 23 | 360 | 1.6 | 0.0 | 0.00 | 0.00 | 0.00 | 18 | 1002.3 |
| 20260506014051 | 23 | 360 | 1.6 | 0.0 | 0.00 | 0.00 | 0.00 | 19 | 1002.2 |
| 20260506013529 | 23 | 360 | 1.6 | 0.0 | 0.00 | 0.00 | 0.00 | 19 | 1002.2 |
| 20260506013021 | 23 | 360 | 1.6 | 0.0 | 0.00 | 0.00 | 0.00 | 19 | 1002.2 |
| 20260506012554 | 23 | 360 | 1.6 | 0.0 | 0.00 | 0.00 | 0.00 | 19 | 1002.3 |
| 20260506012037 | 23 | 360 | 1.6 | 0.0 | 0.00 | 0.00 | 0.00 | 19 | 1002.2 |
| 20260506011523 | 23 | 360 | 1.6 | 0.0 | 0.00 | 0.00 | 0.00 | 19 | 1002.2 |
| 20260506011100 | 23 | 360 | 1.6 | 0.0 | 0.00 | 0.00 | 0.00 | 20 | 1002.2 |
| 20260506010539 | 23 | 360 | 1.6 | 0.0 | 0.00 | 0.00 | 0.00 | 19 | 1002.2 |
| 20260506010021 | 24 | 360 | 1.6 | 0.0 | 0.00 | 0.00 | 0.00 | 19 | 1002.0 |
| 20260506005604 | 24 | 360 | 1.6 | 0.0 | 0.00 | 0.00 | 0.00 | 18 | 1002.2 |
| 20260506005046 | 25 | 360 | 1.6 | 0.0 | 0.00 | 0.00 | 0.00 | 18 | 1002.2 |
| 20260506004523 | 24 | 360 | 1.6 | 0.0 | 0.00 | 0.00 | 0.00 | 19 | 1002.2 |
| 20260506004002 | 23 | 360 | 1.6 | 0.0 | 0.00 | 0.00 | 0.00 | 20 | 1002.3 |
| 20260506003545 | 23 | 360 | 1.6 | 0.0 | 0.00 | 0.00 | 0.00 | 19 | 1002.3 |
| 20260506003026 | 24 | 360 | 1.6 | 0.0 | 0.00 | 0.00 | 0.00 | 19 | 1002.3 |
| 20260506002501 | 23 | 360 | 3.2 | 0.0 | 0.00 | 0.00 | 0.00 | 20 | 1002.4 |
| 20260506002045 | 23 | 360 | 3.2 | 0.0 | 0.00 | 0.00 | 0.00 | 19 | 1002.2 |
| 20260506001524 | 23 | 360 | 3.2 | 0.0 | 0.00 | 0.00 | 0.00 | 19 | 1002.2 |
| 20260506001008 | 24 | 360 | 3.2 | 0.0 | 0.00 | 0.00 | 0.00 | 18 | 1002.2 |
| 20260506000556 | 23 | 360 | 3.2 | 0.0 | 0.00 | 0.00 | 0.00 | 20 | 1002.2 |
| 20260506000031 | 23 | 360 | 3.2 | 0.0 | 0.00 | 0.00 | 0.00 | 19 | 1002.3 |
| 20260505235511 | 23 | 360 | 3.2 | 0.0 | 0.00 | 0.00 | 0.00 | 19 | 1002.2 |
| 20260505235100 | 23 | 360 | 3.2 | 0.0 | 0.00 | 0.00 | 0.00 | 20 | 1002.2 |
| 20260505234539 | 23 | 360 | 3.2 | 0.0 | 0.00 | 0.00 | 0.00 | 19 | 1002.2 |
| 20260505234019 | 23 | 360 | 1.6 | 0.0 | 0.00 | 0.00 | 0.00 | 19 | 1002.2 |
| 20260505233600 | 24 | 360 | 3.2 | 0.0 | 0.00 | 0.00 | 0.00 | 19 | 1002.2 |
| 20260505233047 | 23 | 360 | 3.2 | 0.0 | 0.00 | 0.00 | 0.00 | 19 | 1002.3 |
| 20260505232525 | 24 | 360 | 1.6 | 0.0 | 0.00 | 0.00 | 0.00 | 18 | 1002.2 |
| 20260505232007 | 25 | 360 | 1.6 | 0.0 | 0.00 | 0.00 | 0.00 | 17 | 1002.1 |
| 20260505231554 | 25 | 360 | 1.6 | 0.0 | 0.00 | 0.00 | 0.00 | 18 | 1002.0 |
| 20260505231031 | 24 | 360 | 3.2 | 0.0 | 0.00 | 0.00 | 0.00 | 19 | 1002.1 |
| 20260505230514 | 24 | 360 | 4.8 | 0.0 | 0.00 | 0.00 | 0.00 | 18 | 1002.2 |
| 20260505230119 | 23 | 360 | 3.2 | 0.0 | 0.00 | 0.00 | 0.00 | 19 | 1002.5 |
| 20260505225533 | 23 | 360 | 3.2 | 0.0 | 0.00 | 0.00 | 0.00 | 19 | 1002.5 |
| 20260505225012 | 24 | 360 | 3.2 | 0.0 | 0.00 | 0.00 | 0.00 | 19 | 1002.6 |
| 20260505224558 | 23 | 360 | 4.8 | 0.0 | 0.00 | 0.00 | 0.00 | 20 | 1002.7 |
| 20260505224036 | 22 | 360 | 6.4 | 0.0 | 0.00 | 0.00 | 0.00 | 21 | 1002.8 |
| 20260505223515 | 22 | 360 | 8.0 | 0.0 | 0.00 | 0.00 | 0.00 | 21 | 1003.0 |
| 20260505223058 | 22 | 360 | 6.4 | 0.0 | 0.00 | 0.00 | 0.00 | 20 | 1002.9 |
| 20260505222540 | 22 | 360 | 3.2 | 0.0 | 0.00 | 0.00 | 0.00 | 20 | 1002.9 |
| 20260505222024 | 23 | 360 | 3.2 | 0.0 | 0.00 | 0.00 | 0.00 | 20 | 1003.0 |
| 20260505221503 | 22 | 360 | 3.2 | 0.0 | 0.00 | 0.00 | 0.00 | 20 | 1003.0 |
| 20260505221054 | 23 | 360 | 3.2 | 0.0 | 0.00 | 0.00 | 0.00 | 19 | 1003.0 |
| 20260505220534 | 25 | 360 | 1.6 | 0.0 | 0.00 | 0.00 | 0.00 | 18 | 1002.9 |
| 20260505220028 | 25 | 360 | 4.8 | 0.0 | 0.00 | 0.00 | 0.00 | 18 | 1002.9 |
| 20260505215554 | 25 | 360 | 6.4 | 0.0 | 0.00 | 0.00 | 0.00 | 19 | 1003.0 |
| 20260505215036 | 22 | 360 | 4.8 | 0.0 | 0.00 | 0.00 | 0.00 | 21 | 1003.1 |
| 20260505214520 | 23 | 360 | 3.2 | 0.0 | 0.00 | 0.00 | 0.00 | 20 | 1003.2 |
| 20260505214057 | 24 | 360 | 3.2 | 0.0 | 0.00 | 0.00 | 0.00 | 20 | 1003.2 |
| 20260505213536 | 24 | 360 | 1.6 | 0.0 | 0.00 | 0.00 | 0.00 | 19 | 1003.2 |
| 20260505213015 | 24 | 95 | 1.6 | 0.0 | 0.00 | 0.00 | 0.00 | 20 | 1003.2 |
| 20260505212600 | 23 | 267 | 3.2 | 0.0 | 0.00 | 0.00 | 0.00 | 20 | 1003.5 |
| 20260505212039 | 23 | 16 | 3.2 | 0.0 | 0.00 | 0.00 | 0.00 | 19 | 1003.4 |
| 20260505211520 | 24 | 170 | 3.2 | 0.0 | 0.00 | 0.00 | 0.00 | 20 | 1003.4 |
| 20260505211105 | 24 | 272 | 3.2 | 0.0 | 0.00 | 0.00 | 0.00 | 20 | 1003.5 |
| 20260505210542 | 24 | 111 | 3.2 | 0.0 | 0.00 | 0.00 | 0.00 | 21 | 1003.6 |
| 20260505210022 | 22 | 82 | 3.2 | 0.0 | 0.00 | 0.00 | 0.00 | 23 | 1003.9 |
| 20260505205504 | 22 | 43 | 3.2 | 0.0 | 0.00 | 0.00 | 0.00 | 21 | 1003.8 |
| 20260505205048 | 23 | 105 | 3.2 | 0.0 | 0.00 | 0.00 | 0.00 | 21 | 1003.7 |
| 20260505204526 | 24 | 205 | 1.6 | 0.0 | 0.00 | 0.00 | 0.00 | 20 | 1003.8 |
| 20260505204003 | 24 | 96 | 1.6 | 0.0 | 0.00 | 0.00 | 0.00 | 21 | 1003.7 |
| 20260505203549 | 23 | 91 | 3.2 | 0.0 | 0.00 | 0.00 | 0.00 | 22 | 1003.7 |
| 20260505203029 | 23 | 161 | 4.8 | 0.0 | 0.00 | 0.00 | 0.00 | 23 | 1003.7 |
| 20260505202506 | 22 | 262 | 6.4 | 0.0 | 0.00 | 0.00 | 0.00 | 24 | 1003.8 |
| 20260505202056 | 22 | 93 | 4.8 | 0.0 | 0.00 | 0.00 | 0.00 | 22 | 1003.9 |
| 20260505201533 | 23 | 115 | 3.2 | 0.0 | 0.00 | 0.00 | 0.00 | 22 | 1003.7 |
| 20260505201013 | 22 | 76 | 1.6 | 0.0 | 0.00 | 0.00 | 0.00 | 24 | 1004.0 |
| 20260505200559 | 23 | 96 | 3.2 | 0.0 | 0.00 | 0.00 | 0.00 | 24 | 1004.0 |
| 20260505200042 | 21 | 118 | 4.8 | 0.0 | 0.00 | 0.00 | 0.00 | 27 | 1004.3 |
| 20260505195522 | 21 | 121 | 6.4 | 0.0 | 0.00 | 0.00 | 0.00 | 26 | 1004.1 |
| 20260505195002 | 21 | 78 | 4.8 | 0.0 | 0.00 | 0.00 | 0.00 | 24 | 1004.2 |
| 20260505194548 | 22 | 115 | 4.8 | 0.0 | 0.00 | 0.00 | 0.00 | 24 | 1004.2 |
| 20260505194030 | 21 | 78 | 3.2 | 0.0 | 0.00 | 0.00 | 0.00 | 26 | 1004.4 |
| 20260505193510 | 22 | 92 | 1.6 | 0.0 | 0.00 | 0.00 | 0.00 | 24 | 1004.3 |
| 20260505193102 | 23 | 67 | 3.2 | 0.0 | 0.00 | 0.00 | 0.00 | 24 | 1004.1 |
| 20260505192536 | 21 | 316 | 3.2 | 0.0 | 0.00 | 0.00 | 0.00 | 27 | 1004.4 |
| 20260505192016 | 21 | 109 | 3.2 | 0.0 | 0.00 | 0.00 | 0.00 | 26 | 1004.4 |
| 20260505191502 | 22 | 196 | 3.2 | 0.0 | 0.00 | 0.00 | 0.00 | 26 | 1004.4 |
| 20260505191047 | 22 | 136 | 3.2 | 0.0 | 0.00 | 0.00 | 0.00 | 27 | 1004.4 |